Regional Weather Roundup
Issued by NWS

Home | Current Version | Previous Version | Text Only | Print | Product List | Glossary On
Versions: 1 2 3 4 5 6 7 8 9 10 11 12 13 14 15 16 17 18 19 20 21 22 23 24 25 26 27 28 29 30 31 32 33 34 35 36 37 38 39 40 41 42 43 44 45 46 47 48 49 50
000
ASUS43 KFSD 231310
RWRSD

WEATHER ROUNDUP FOR SOUTH DAKOTA
NATIONAL WEATHER SERVICE SIOUX FALLS SD
800 AM CDT THU OCT 23 2014

NOTE: "FAIR" INDICATES FEW OR NO CLOUDS BELOW 12,000 FEET WITH NO
SIGNIFICANT WEATHER AND/OR OBSTRUCTIONS TO VISIBILITY.


SDZ001>005-009-010-012>017-231400-
NORTHWEST AND NORTH CENTRAL SOUTH DAKOTA

CITY           SKY/WX    TMP DP  RH WIND       PRES   REMARKS
BUFFALO          N/A     41  27  57 W8        29.87S
FAITH            N/A     41  30  65 S15       29.94S
MOBRIDGE       CLEAR     42  37  82 SE6       29.92F
$$

SDZ012>016-024>037-041>051-057-063-072>074-231400-
SOUTHWEST AND SOUTH CENTRAL SOUTH DAKOTA

CITY           SKY/WX    TMP DP  RH WIND       PRES   REMARKS
RAPID CTY ARPT CLEAR     39  24  55 W8        29.98S
PIERRE         CLEAR     36  33  89 CALM      29.97R
CUSTER         CLEAR     38  18  44 W9        30.04F
ELLSWORTH AFB  PTCLDY    37  25  61 W7        29.97S
PHILIP         CLEAR     29  26  89 SW3       29.98S
PINE RIDGE     CLEAR     24  21  88 CALM      30.03S
SPEARFISH      FAIR      39  19  45 E3        29.97F
WINNER         FAIR      49  43  80 SW13      29.99S
$$

SDZ004>011-016>023-039-040-231400-
NORTHEAST SOUTH DAKOTA

CITY           SKY/WX    TMP DP  RH WIND       PRES   REMARKS
ABERDEEN       CLEAR     32  30  92 S7        29.96F WCI  26
WATERTOWN      MOCLDY    37  37 100 S6        29.98S FOG
SISSETON         N/A     47  40  76 W8        29.93S
$$

SDZ017-020-022-023-036>040-048>070-231400-
SOUTHEAST SOUTH DAKOTA

CITY           SKY/WX    TMP DP  RH WIND       PRES   REMARKS
SIOUX FALLS    FOG       42  41  96 CALM      30.01S VSB 1/4
HURON          CLEAR     35  34  96 SE6       29.99R
CHAMBERLAIN    CLEAR     38  37  99 S3        29.99S
MITCHELL       CLEAR     40  39  97 S5        30.00S
YANKTON          N/A     39  37  93 CALM      30.02F VSB 1/4
$$

ABBREVIATIONS USED IN REMARKS
   TC - TEMPERATURE IN CELSIUS
  WCI - WIND CHILL INDEX
   HX - HEAT INDEX
  VSB - VISIBILITY




USA.gov is the U.S. government's official web portal to all federal, state and local government web resources and services.